COSMOS 1019

Satellite information

Favourite Embed

Satellite Type and Status

PAYLOADIN ORBIT

Key statistics

Satellite COSMOS 1019 at a glance.

Uptime

17313

Days in orbit

Revolutions

≈ 12.5

Per day

Orbit

LEO

Low Earth Orbit

Inclination

74.0

Latest

Satellite identification and parameters

Extended collection of information and parameters for COSMOS 1019.

Object identification

Identified? True

Debris? False

Object name: COSMOS 1019

International designator: 1978-056G

Object number (NORAD): 10936

Object ID (CCSDS): 10936

Country: COMMONWEALTH OF INDEPENDENT STATES (CIS)

Current information (Y/N): Y

RCS size: MEDIUM

Orbital parameters

Period: 115.002 minutes

Inclination: 74.0262 deg

SMA: 7833.624 km

Apoapsis: 1488.01 km

Periapsis: 1422.968 km

RAAN: 177.3076 deg

Eccentricy: 0.0041514

Argument of periapsis: 290.604 deg

Mean anomaly: 73.3974 deg

Mean motion: 12.52156697 rev/day

Mean motion (dot): -0.00000012 rev/day2

B* drag term: 0.000024357312 1/REarth

Two-line elements (TLE)

Creation date: Oct. 31, 2025, 3 a.m.

Reference frame: TEME

Reference center: EARTH

Epoch: Oct. 30, 2025, 1:47 p.m. UTC

TLE line 0: 0 COSMOS 1019

TLE line 1: 1 10936U 78056G 25303.57433716 -.00000012 00000-0 24357-4 0 9993

TLE line 2: 2 10936 74.0262 177.3076 0041514 290.6040 73.3974 12.52156697166492

Live tracking on map

Real-time ground track for satellite COSMOS 1019.

In-orbit conjunctions

There are no conjunctions computed for COSMOS 1019, at the moment. Check back to stay up to date, as we update our databases every day.

Go to all conjunctions

Associated space launch

Military communications satellites

COSMOS 1019 was lifted into orbit during the mission ‘Kosmos-3M | Strela-1M 145-152’, on board a Kosmos-3M space rocket.

The launch took place on June 7, 1978, 10 p.m. from 132/1 (132L).

For more information about the launch, click the button.

Launch to space Kosmos-3M | Strela-1M 145-152
Kosmos-3M | Strela-1M 145-152

Agency: N/A

Status: Launch Successful

Launch date: June 7, 1978, 10 p.m. UTC

Rocket: Kosmos-3M

Launch pad: 132/1 (132L)

Location: Plesetsk Cosmodrome, Russian Federation

...

Latest news about this satellite

There are no fresh news available about this satellite. Check back as we update our databases every day.


Newsletter sign-up

Weekly statistics, charts and insights to help you stay on top of the space industry.